Regional Weather Roundup
Issued by NWS Charleston, WV

Home | Current Version | Previous Version | Graphics & Text | Print | Product List | Glossary On
Versions: 1 2 3 4 5 6 7 8 9 10 11 12 13 14 15 16 17 18 19 20 21 22 23 24 25 26 27 28 29 30 31 32 33 34 35 36 37 38 39 40 41 42 43 44 45 46 47 48 49 50
077
ASUS41 KRLX 131610
RWRRLX
West Virginia Regional Weather Roundup
National Weather Service Charleston WV
1100 AM EST SAT FEB 13 2016

Note: "fair" indicates few or no clouds below 12,000 feet with no
significant weather and/or obstructions to visibility.

WVZ003-131700-
Northern Panhandle of West Virginia

CITY           SKY/WX    TMP DP  RH WIND       PRES   REMARKS
WHEELING       PTSUNNY    9  -6  50 NW16G26   30.36R WCI  -8
$$

WVZ009-131700-
Northwest West Virginia

CITY           SKY/WX    TMP DP  RH WIND       PRES   REMARKS
PARKERSBURG      N/A     11  -8  42 W13G21    30.49R WCI  -4
$$

WVZ006-131700-
Western West Virginia

CITY           SKY/WX    TMP DP  RH WIND       PRES   REMARKS
HUNTINGTON     LGT SNOW  17   5  59 NW9G20    30.50R WCI   6
$$

WVZ015-131700-
West Central West Virginia

CITY           SKY/WX    TMP DP  RH WIND       PRES   REMARKS
CHARLESTON     FLURRIES  16  -2  45 NW14G30   30.45S WCI   2
$$

WVZ022-031-131700-
North Central West Virginia

CITY           SKY/WX    TMP DP  RH WIND       PRES   REMARKS
CLARKSBURG     CLOUDY    11  -4  51 W14G23    30.36R WCI  -5
MORGANTOWN     NOT AVBL
$$

WVZ025-035-042-045-131700-
Southern West Virginia

CITY           SKY/WX    TMP DP  RH WIND       PRES   REMARKS
BECKLEY        LGT SNOW  10   0  63 NW20G29   30.26R WCI  -9
LOGAN          LGT SNOW  12   5  73 NW14      30.39R VSB 1   WCI  -3
BLUEFIELD      MIX PCPN   9  -4  55 NW18G32   30.22S WCI -10
LEWISBURG      CLOUDY    15   3  59 W10G20    30.23S HAZE    WCI   2
$$

WVZ047-131700-
Northern Mountains of West Virginia

CITY           SKY/WX    TMP DP  RH WIND       PRES   REMARKS
ELKINS         CLOUDY     7  -5  57 NW15      30.26R WCI -10
$$

WVZ052-131700-
Eastern Panhandle of West Virginia

CITY           SKY/WX    TMP DP  RH WIND       PRES   REMARKS
MARTINSBURG    CLOUDY    16  -4  41 NW18G26   30.27R WCI   0
PETERSBURG     PTSUNNY   14  -4  44 NW9G30    30.31R WCI   2
$$




USA.gov is the U.S. government's official web portal to all federal, state and local government web resources and services.